Location: Unspecified
(0.0000°N, 0.0000°E)
Time: 12:22:45
(UTC+00:00)

Vanguard 2 Rocket - Pass Details

Date: 10 December 2017
Orbit: 556 x 3326 km, 32.9° (Epoch: 21 January)

Event Time Altitude Azimuth Distance (km) Brightness Sun altitude
Rises 16:45:32 0° 239° (WSW) 3,618 11.8 15.5°
Reaches altitude 10° 16:47:38 10° 241° (WSW) 2,902 12.3 15.0°
Maximum altitude 16:54:52 77° 326° (NW) 1,585 8.4 13.4°
Drops below altitude 10° 17:08:15 10° 51° (NE) 5,092 10.1 10.3°
Sets 17:13:12 0° 52° (NE) 6,500 10.6 9.2°
